Flight Track Log - Related Links

Times and Time Zones

All times are in EDT time to prevent confusion due to time zone crossing. See the LOF3401 flight status page for this flight to view local times or setup timezone preferences in your user account.

Time Position Orientation Groundspeed Altitude Reporting Facility
EDT Latitude Longitude Course Direction KTS MPH feet Rate Location/Type
Sun 01:13:28 PM 42.0000 -87.8167 66° East 184 212 3,500  Level Chicago TRACON
Sun 01:14:28 PM 42.0333 -87.7500 56° Northeast 241 277 4,600 1,280 Climbing Chicago TRACON
Sun 01:15:58 PM 42.0758 -87.6267 65° Northeast 254 292 6,700 1,776 Climbing Chicago Center
Sun 01:16:00 PM 42.1254 -87.4721 59° Northeast  Level FlightAware Approximate
Sun 01:17:00 PM 42.1681 -87.3625 66° East  Level FlightAware Approximate
Sun 01:17:00 PM 42.1097 -87.5378 63° Northeast 265 305 9,100  Level Chicago Center
Sun 01:18:00 PM 42.2009 -87.2643 66° East  Level FlightAware Approximate
Sun 01:18:02 PM 42.1456 -87.4361 65° Northeast 278 320 11,500  Level Chicago Center
Sun 01:19:04 PM 42.1647 -87.3203 77° East 321 369 12,700 1,113 Climbing Chicago Center
Sun 01:20:06 PM 42.1822 -87.1761 81° East 360 414 13,800 1,016 Climbing Chicago Center
Sun 01:21:08 PM 42.2261 -87.0461 65° Northeast 379 436 14,800 919 Climbing Chicago Center
Sun 01:22:10 PM 42.2767 -86.9056 64° Northeast 390 449 15,700 677 Climbing Chicago Center
Sun 01:23:12 PM 42.3225 -86.7864 62° Northeast 401 461 16,200 480 Climbing Chicago Center
Sun 01:24:15 PM 42.3731 -86.6481 64° Northeast 409 471 16,700  Climbing Chicago Center
Sun 01:25:17 PM 42.4353 -86.4806 63° Northeast 413 475 16,200 -1,113 Descending Chicago Center
Sun 01:26:19 PM 42.4853 -86.3419 64° Northeast 413 475 14,400 -2,032 Descending Chicago Center
Sun 01:27:21 PM 42.5319 -86.2144 64° Northeast 385 443 12,000 -1,887 Descending Chicago Center
Sun 01:28:23 PM 42.5869 -86.1131 54° Northeast 340 391 10,500 -1,355 Descending Chicago Center
Sun 01:29:25 PM 42.6378 -86.0294 50° Northeast 301 346 9,200 -1,403 Descending Chicago Center
Sun 01:30:27 PM 42.6925 -85.9389 51° Northeast 268 308 7,600 -1,452 Descending Chicago Center
Sun 01:31:29 PM 42.7367 -85.8647 51° Northeast 259 298 6,200 -1,258 Descending Chicago Center
Sun 01:32:31 PM 42.7808 -85.7906 51° Northeast 259 298 5,000 -1,104 Descending Chicago Center
Sun 01:33:34 PM 42.8228 -85.7181 52° Northeast 251 289 3,900 -1,056 Descending Chicago Center
Sun 01:34:36 PM 42.8544 -85.6583 54° Northeast 215 247 2,800 -1,065 Descending Chicago Center
Sun 01:35:38 PM 42.8708 -85.5997 69° East 161 185 1,700 -919 Descending Chicago Center
Sun 01:36:40 PM 42.8764 -85.5486 82° East 146 168 900 -774 Descending Chicago Center

Login

Don't have an account? Register now (free) for customized features, flight alerts, and more!